Home > Weather > New Delhi > Past weeks

Flag for India Weather for the Past 2 Weeks in New Delhi, Delhi, India

Now
64 °F

Haze.


Feels Like: 64 °F
Forecast: 55 / 65 °F
Wind: 5 mph from East

Location: New Delhi Palam Airport

Current Time: Feb 6, 2016 at 7:41:03 PM

Latest Report: Feb 6, 2016 at 7:00 PM


Visibility: 1 mi

Pressure: 29.86 "Hg

Humidity: 60%

Dew point: 50 °F

Location of New DelhiLocation

Historic Weather in New Delhi — Graph

°F

New Delhi Temperature Yesterday

Maximum temperature yesterday: 73 °F (at 1:30 PM)
Minimum temperature yesterday: 43 °F (at 6:30 AM)
Average temperature yesterday: 59 °F

High & Low Weather Summary for the Past Weeks

 TemperatureHumidityPressure
High79 °F (Jan 30, 1:30 PM)100% (Jan 23, 4:30 AM)30.15 "Hg (Jan 23, 4:30 AM)
Low43 °F (Jan 23, 4:30 AM)25% (Feb 4, 2:30 PM)29.86 "Hg (Feb 6, 4:30 PM)
Average59 °F69%30.02 "Hg
* Reported Jan 22 5:30 PM — Feb 6 6:00 PM, New Delhi, Weather by CustomWeather, © 2016

Note: Actual official high and low records may vary slightly from our data, if they occured in-between our weather recording intervals... More about our weather records

Advertising

New Delhi Weather History for the Previous 24 Hours

 ConditionsComfort  
Time TempWeatherWind HumidityBarometerVisibility
6:00 PM
Sat, Feb 6
70 °FHaze.8 mph46%29.86 "Hg1 mi
5:30 PM70 °FHaze.9 mph43%29.86 "Hg1 mi
5:00 PM72 °FHaze.9 mph36%29.86 "Hg1 mi
4:30 PM73 °FHaze.9 mph33%29.86 "Hg1 mi
4:00 PM73 °FHaze.10 mph36%29.89 "Hg1 mi
3:30 PM75 °FHaze.12 mph31%29.89 "Hg1 mi
2:30 PM75 °FHaze.9 mph34%29.89 "Hg1 mi
2:00 PM73 °FHaze.9 mph36%29.92 "Hg1 mi
1:00 PM72 °FHaze.9 mph36%29.95 "Hg2 mi
12:30 PM72 °FClear.9 mph36%29.95 "Hg1 mi
12:00 PM70 °FClear.10 mph38%29.95 "Hg1 mi
11:30 AM70 °FClear.10 mph40%29.98 "Hg1 mi
11:00 AM70 °FClear.12 mph40%29.98 "Hg1 mi
10:30 AM68 °FClear.10 mph46%29.98 "Hg1 mi
10:00 AM66 °FClear.10 mph49%29.98 "Hg1 mi
9:30 AM61 °FClear.5 mph63%29.95 "Hg1 mi
9:00 AM59 °FClear.5 mph68%29.95 "Hg1 mi
8:30 AM52 °FFog.5 mph88%29.95 "Hg1 mi
8:00 AM52 °FFog.5 mph82%29.95 "Hg0 mi
7:30 AM46 °FFog.No wind87%29.95 "Hg0 mi
6:30 AM46 °FFog.No wind87%29.92 "Hg0 mi
5:30 AM46 °FRain. Overcast.No wind93%29.89 "Hg0 mi
5:00 AM48 °FRain. Overcast.No wind87%29.89 "Hg1 mi
4:00 AM48 °FFog.No wind87%29.89 "Hg1 mi
3:30 AM50 °FFog.No wind82%29.92 "Hg1 mi
3:00 AM50 °FFog.No wind82%29.92 "Hg1 mi
2:30 AM50 °FFog.No wind82%29.92 "Hg1 mi
2:00 AM52 °FFog.No wind77%29.92 "Hg1 mi
1:30 AM52 °FClear.No wind72%29.92 "Hg1 mi
1:00 AM52 °FClear.No wind72%29.92 "Hg1 mi
12:30 AM54 °FClear.No wind72%29.95 "Hg1 mi
12:00 AM54 °FClear.No wind72%29.95 "Hg1 mi
11:00 PM
Fri, Feb 5
55 °FClear.No wind63%29.95 "Hg1 mi
10:30 PM55 °FClear.No wind63%29.95 "Hg1 mi
10:00 PM57 °FClear.No wind59%29.95 "Hg1 mi
9:00 PM59 °FClear.No wind55%29.95 "Hg1 mi
8:00 PM63 °FClear.No wind49%29.95 "Hg1 mi
7:30 PM64 °FHaze.3 mph46%29.95 "Hg1 mi
7:00 PM66 °FHaze.3 mph40%29.95 "Hg1 mi
Weather by CustomWeather, © 2016

See weather overviewHow to use our weather pages